This is the latest recevied weather packets stored in our database for station/object W0AVQ. If no packets are shown the sender has not sent any weather packets the latest 10 day(s).
| Time | Temp. | Humidity | Pressure | Rain* | Wind** | Luminosity | Snow |
|---|---|---|---|---|---|---|---|
| 1777813551 | 10.56° C | 99% | 1022.7 hPa | 0 mm | - | 50 W/m² | - |
| 1777813249 | 9.44° C | 99% | 1022.5 hPa | 0 mm | - | 48 W/m² | - |
| 1777812946 | 8.89° C | 99% | 1022.6 hPa | 0 mm | - | 48 W/m² | - |
| 1777812644 | 8.33° C | 99% | 1022.7 hPa | 0 mm | - | 46 W/m² | - |
| 1777812340 | 7.78° C | 99% | 1022.6 hPa | 0 mm | - | 42 W/m² | - |
| 1777812039 | 7.78° C | 99% | 1022.7 hPa | 0 mm | - | 41 W/m² | - |
| 1777811737 | 7.78° C | 99% | 1022.6 hPa | 0 mm | - | 42 W/m² | - |
| 1777811433 | 7.78° C | 99% | 1022.7 hPa | 0 mm | - | 38 W/m² | - |
| 1777811129 | 7.78° C | 99% | 1022.6 hPa | 0 mm | - | 38 W/m² | - |
| 1777810827 | 8.89° C | 99% | 1022.6 hPa | 0 mm | - | 37 W/m² | - |
| 1777810523 | 7.78° C | 99% | 1022.6 hPa | 0 mm | - | 36 W/m² | - |
| 1777810220 | 7.78° C | 99% | 1022.4 hPa | 0 mm | - | 33 W/m² | - |
| 1777809916 | 6.67° C | 99% | 1022.4 hPa | 0 mm | - | 31 W/m² | - |
| 1777809615 | 5.56° C | 99% | 1022.5 hPa | 0 mm | - | 29 W/m² | - |
| 1777809312 | 5° C | 99% | 1022.5 hPa | 0 mm | - | 25 W/m² | - |
| 1777809009 | 4.44° C | 99% | 1022.3 hPa | 0 mm | - | 22 W/m² | - |
| 1777808707 | 3.89° C | 99% | 1022.3 hPa | 0 mm | - | 20 W/m² | - |
| 1777808403 | 3.89° C | 99% | 1022.1 hPa | 0 mm | - | 17 W/m² | - |
| 1777808101 | 3.33° C | 99% | 1022.2 hPa | 0 mm | - | 14 W/m² | - |
| 1777807799 | 3.33° C | 99% | 1022 hPa | 0 mm | - | 12 W/m² | - |
| 1777807497 | 2.78° C | 99% | 1022.1 hPa | 0 mm | - | 10 W/m² | - |
| 1777807192 | 3.33° C | 99% | 1022 hPa | 0 mm | - | 8 W/m² | - |
| 1777806890 | 3.33° C | 99% | 1022 hPa | 0 mm | - | 5 W/m² | - |
| 1777806586 | 3.33° C | 99% | 1021.8 hPa | 0 mm | - | 2 W/m² | - |
| 1777806282 | 3.33° C | 99% | 1022.1 hPa | 0 mm | - | 2 W/m² | - |
* Rain latest hour (hover to see other rain measurements)
** Current wind speed in m/s (hover to see current wind gust speed)